| time (UTC) | temp C | wind direction | speed KPH | gust KPH | rain 1hr cm | rain 24hr cm | rain mn cm | humidity % | barometer mb |
| 20260903100104 | 16 | 0 | 0.0 | 8.0 | 0.00 | 0.00 | 0.00 | 46 | 1020.6 |
| 20260903094612 | 17 | 198 | 8.0 | 19.3 | 0.00 | 0.00 | 0.00 | 44 | 1020.7 |
| 20260903093114 | 15 | 191 | 3.2 | 8.0 | 0.00 | 0.00 | 0.00 | 46 | 1020.8 |
| 20260903091603 | 16 | 210 | 4.8 | 14.5 | 0.00 | 0.00 | 0.00 | 43 | 1020.9 |
| 20260903084601 | 16 | 200 | 3.2 | 14.5 | 0.00 | 0.00 | 0.00 | 42 | 1020.8 |
| 20260903083107 | 17 | 237 | 1.6 | 8.0 | 0.00 | 0.00 | 0.00 | 40 | 1020.8 |
| 20260903081603 | 16 | 186 | 1.6 | 8.0 | 0.00 | 0.00 | 0.00 | 40 | 1020.7 |
| 20260903080107 | 16 | 0 | 0.0 | 1.6 | 0.00 | 0.00 | 0.00 | 41 | 1020.8 |
| 20260903074608 | 17 | 0 | 0.0 | 3.2 | 0.00 | 0.00 | 0.00 | 41 | 1020.9 |
| 20260903073107 | 17 | 0 | 1.6 | 6.4 | 0.00 | 0.00 | 0.00 | 40 | 1020.8 |
| 20260903071611 | 17 | 253 | 0.0 | 3.2 | 0.00 | 0.00 | 0.00 | 41 | 1020.9 |
| 20260903070112 | 18 | 214 | 1.6 | 6.4 | 0.00 | 0.00 | 0.00 | 41 | 1021.0 |
| 20260903064608 | 17 | 0 | 0.0 | 1.6 | 0.00 | 0.00 | 0.00 | 42 | 1021.2 |
| 20260903063127 | 17 | 0 | 0.0 | 1.6 | 0.00 | 0.00 | 0.00 | 43 | 1021.4 |
| 20260903061608 | 17 | 0 | 0.0 | 0.0 | 0.00 | 0.00 | 0.00 | 43 | 1021.3 |
| 20260903060118 | 17 | 0 | 0.0 | 1.6 | 0.00 | 0.00 | 0.00 | 43 | 1021.1 |
| 20260903054611 | 17 | 0 | 0.0 | 0.0 | 0.00 | 0.00 | 0.00 | 44 | 1021.1 |
| 20260903053105 | 17 | 0 | 0.0 | 1.6 | 0.00 | 0.00 | 0.00 | 45 | 1021.2 |
| 20260903051602 | 17 | 0 | 0.0 | 4.8 | 0.00 | 0.00 | 0.00 | 44 | 1021.3 |
| 20260903050128 | 17 | 232 | 0.0 | 3.2 | 0.00 | 0.00 | 0.00 | 45 | 1021.3 |
| 20260903044606 | 18 | 0 | 0.0 | 1.6 | 0.00 | 0.00 | 0.00 | 45 | 1021.4 |
| 20260903043100 | 18 | 0 | 0.0 | 0.0 | 0.00 | 0.00 | 0.00 | 45 | 1021.7 |
| 20260903041603 | 18 | 0 | 0.0 | 0.0 | 0.00 | 0.00 | 0.00 | 45 | 1021.7 |
| 20260903040109 | 18 | 264 | 0.0 | 1.6 | 0.00 | 0.00 | 0.00 | 44 | 1021.7 |
| 20260903034603 | 18 | 0 | 0.0 | 0.0 | 0.00 | 0.00 | 0.00 | 43 | 1021.5 |
| 20260903033103 | 19 | 0 | 0.0 | 9.7 | 0.00 | 0.00 | 0.00 | 38 | 1021.4 |
| 20260903031604 | 18 | 122 | 0.0 | 3.2 | 0.00 | 0.00 | 0.00 | 40 | 1021.6 |
| 20260903030108 | 19 | 0 | 0.0 | 1.6 | 0.00 | 0.00 | 0.00 | 40 | 1021.4 |
| 20260903024600 | 20 | 0 | 0.0 | 4.8 | 0.00 | 0.00 | 0.00 | 36 | 1021.5 |
| 20260903023100 | 20 | 0 | 1.6 | 6.4 | 0.00 | 0.00 | 0.00 | 35 | 1021.3 |
| 20260903021609 | 20 | 124 | 3.2 | 9.7 | 0.00 | 0.00 | 0.00 | 36 | 1020.9 |
| 20260903020106 | 20 | 0 | 1.6 | 16.1 | 0.00 | 0.00 | 0.00 | 36 | 1020.8 |
| 20260903014612 | 21 | 0 | 4.8 | 14.5 | 0.00 | 0.00 | 0.00 | 37 | 1020.7 |
| 20260903013104 | 21 | 213 | 9.7 | 19.3 | 0.00 | 0.00 | 0.00 | 37 | 1020.6 |
| 20260903011611 | 21 | 181 | 8.0 | 20.9 | 0.00 | 0.00 | 0.00 | 36 | 1020.4 |
| 20260903010106 | 21 | 153 | 1.6 | 11.3 | 0.00 | 0.00 | 0.00 | 35 | 1020.3 |
| 20260903004603 | 21 | 0 | 0.0 | 6.4 | 0.00 | 0.00 | 0.00 | 38 | 1020.3 |
| 20260903003103 | 22 | 229 | 0.0 | 6.4 | 0.00 | 0.00 | 0.00 | 38 | 1020.4 |
| 20260903001607 | 22 | 195 | 3.2 | 9.7 | 0.00 | 0.00 | 0.00 | 35 | 1020.7 |
| 20260903000107 | 22 | 236 | 3.2 | 9.7 | 0.00 | 0.00 | 0.00 | 35 | 1020.5 |
| 20260902234606 | 22 | 186 | 0.0 | 4.8 | 0.00 | 0.00 | 0.00 | 38 | 1020.6 |
| 20260902233102 | 22 | 321 | 0.0 | 6.4 | 0.00 | 0.00 | 0.00 | 38 | 1020.9 |
| 20260902231609 | 21 | 285 | 4.8 | 19.3 | 0.00 | 0.00 | 0.00 | 39 | 1021.1 |
| 20260902230109 | 20 | 228 | 4.8 | 14.5 | 0.00 | 0.00 | 0.00 | 39 | 1021.8 |
| 20260902224606 | 22 | 218 | 9.7 | 30.6 | 0.00 | 0.00 | 0.00 | 34 | 1021.7 |
| 20260902223109 | 25 | 209 | 3.2 | 14.5 | 0.00 | 0.00 | 0.00 | 25 | 1020.8 |
| 20260902221602 | 25 | 79 | 6.4 | 12.9 | 0.00 | 0.00 | 0.00 | 24 | 1020.3 |
| 20260902220109 | 26 | 13 | 8.0 | 20.9 | 0.00 | 0.00 | 0.00 | 23 | 1020.1 |
| 20260902214606 | 25 | 44 | 3.2 | 12.9 | 0.00 | 0.00 | 0.00 | 24 | 1020.2 |
| 20260902213102 | 25 | 40 | 4.8 | 12.9 | 0.00 | 0.00 | 0.00 | 24 | 1020.5 |
| 20260902211604 | 25 | 108 | 6.4 | 19.3 | 0.00 | 0.00 | 0.00 | 24 | 1020.7 |
| 20260902210105 | 25 | 18 | 6.4 | 17.7 | 0.00 | 0.00 | 0.00 | 25 | 1021.0 |
| 20260902204604 | 25 | 40 | 8.0 | 19.3 | 0.00 | 0.00 | 0.00 | 25 | 1021.2 |
| 20260902203102 | 24 | 94 | 4.8 | 9.7 | 0.00 | 0.00 | 0.00 | 27 | 1021.5 |
| 20260902201606 | 23 | 55 | 3.2 | 16.1 | 0.00 | 0.00 | 0.00 | 28 | 1021.8 |
| 20260902200117 | 23 | 15 | 3.2 | 16.1 | 0.00 | 0.00 | 0.00 | 27 | 1022.0 |
| 20260902194607 | 24 | 94 | 3.2 | 16.1 | 0.00 | 0.00 | 0.00 | 27 | 1022.1 |
| 20260902193107 | 23 | 15 | 9.7 | 19.3 | 0.00 | 0.00 | 0.00 | 27 | 1022.1 |
| 20260902191606 | 25 | 0 | 6.4 | 17.7 | 0.00 | 0.00 | 0.00 | 27 | 1022.2 |
| 20260902190106 | 25 | 18 | 3.2 | 17.7 | 0.00 | 0.00 | 0.00 | 27 | 1022.2 |
| 20260902184609 | 25 | 38 | 8.0 | 19.3 | 0.00 | 0.00 | 0.00 | 27 | 1022.6 |
| 20260902183108 | 24 | 28 | 4.8 | 19.3 | 0.00 | 0.00 | 0.00 | 28 | 1022.8 |
| 20260902181603 | 23 | 103 | 6.4 | 17.7 | 0.00 | 0.00 | 0.00 | 29 | 1023.1 |
| 20260902180132 | 24 | 337 | 4.8 | 12.9 | 0.00 | 0.00 | 0.00 | 29 | 1023.1 |
| 20260902174605 | 25 | 11 | 8.0 | 29.0 | 0.00 | 0.00 | 0.00 | 27 | 1023.2 |
| 20260902173104 | 26 | 352 | 4.8 | 19.3 | 0.00 | 0.00 | 0.00 | 25 | 1023.4 |
| 20260902171608 | 25 | 274 | 4.8 | 16.1 | 0.00 | 0.00 | 0.00 | 23 | 1023.4 |
| 20260902170105 | 25 | 195 | 4.8 | 14.5 | 0.00 | 0.00 | 0.00 | 24 | 1023.7 |
| 20260902164608 | 25 | 205 | 3.2 | 22.5 | 0.00 | 0.00 | 0.00 | 23 | 1023.7 |
| 20260902163107 | 25 | 0 | 4.8 | 20.9 | 0.00 | 0.00 | 0.00 | 25 | 1023.9 |
| 20260902161606 | 25 | 198 | 6.4 | 19.3 | 0.00 | 0.00 | 0.00 | 24 | 1023.8 |
| 20260902160111 | 24 | 258 | 6.4 | 20.9 | 0.00 | 0.00 | 0.00 | 24 | 1023.8 |
| 20260902154602 | 24 | 193 | 4.8 | 19.3 | 0.00 | 0.00 | 0.00 | 25 | 1023.6 |
| 20260902153104 | 23 | 233 | 3.2 | 16.1 | 0.00 | 0.00 | 0.00 | 25 | 1023.6 |
| 20260902151604 | 23 | 49 | 6.4 | 17.7 | 0.00 | 0.00 | 0.00 | 29 | 1023.3 |
| 20260902144607 | 23 | 95 | 0.0 | 4.8 | 0.00 | 0.00 | 0.00 | 26 | 1023.1 |
| 20260902143108 | 23 | 207 | 1.6 | 11.3 | 0.00 | 0.00 | 0.00 | 26 | 1023.1 |
| 20260902141604 | 22 | 181 | 3.2 | 16.1 | 0.00 | 0.00 | 0.00 | 27 | 1023.2 |
| 20260902134607 | 21 | 207 | 1.6 | 11.3 | 0.00 | 0.00 | 0.00 | 29 | 1023.1 |
| 20260902133105 | 21 | 81 | 1.6 | 9.7 | 0.00 | 0.00 | 0.00 | 29 | 1023.0 |
| 20260902131602 | 20 | 214 | 1.6 | 6.4 | 0.00 | 0.00 | 0.00 | 30 | 1022.9 |
| 20260902130104 | 18 | 206 | 4.8 | 14.5 | 0.00 | 0.00 | 0.00 | 34 | 1022.7 |
| 20260902124608 | 17 | 266 | 0.0 | 4.8 | 0.00 | 0.00 | 0.00 | 37 | 1022.7 |
| 20260902123105 | 17 | 0 | 0.0 | 6.4 | 0.00 | 0.00 | 0.00 | 37 | 1022.7 |
| 20260902121613 | 17 | 309 | 1.6 | 11.3 | 0.00 | 0.00 | 0.00 | 37 | 1022.6 |
| 20260902120141 | 16 | 199 | 1.6 | 8.0 | 0.00 | 0.00 | 0.00 | 41 | 1022.4 |
| 20260902114602 | 16 | 0 | 0.0 | 4.8 | 0.00 | 0.00 | 0.00 | 45 | 1022.3 |
| 20260902113111 | 16 | 266 | 1.6 | 9.7 | 0.00 | 0.00 | 0.00 | 45 | 1022.5 |
| 20260902111605 | 16 | 0 | 1.6 | 9.7 | 0.00 | 0.00 | 0.00 | 44 | 1022.5 |
| 20260902110116 | 17 | 243 | 0.0 | 14.5 | 0.00 | 0.00 | 0.00 | 43 | 1022.7 |
| 20260902104602 | 16 | 205 | 0.0 | 6.4 | 0.00 | 0.00 | 0.00 | 44 | 1022.8 |
| 20260902103105 | 16 | 0 | 0.0 | 1.6 | 0.00 | 0.00 | 0.00 | 43 | 1022.7 |
| 20260902101607 | 17 | 276 | 0.0 | 8.0 | 0.00 | 0.00 | 0.00 | 41 | 1022.7 |